{"data":{"norad_id":41384,"epoch":"2026-05-25T02:11:09.273984Z","epoch_age_seconds":66386,"freshness":"FRESH","line1":"1 41384U 16015A   26145.09107956  .00000158  00000+0  00000+0 0  9990","line2":"2 41384   5.2913  97.3049 0016882 187.4827  23.1073  1.00271190 37430","mean_motion":1.0027119,"eccentricity":0.0016882,"inclination_deg":5.2913,"raan_deg":97.3049,"arg_perigee_deg":187.4827,"mean_anomaly_deg":23.1073,"bstar":0,"rev_number":3743,"period_min":1436.1054256961,"perigee_km":35715.578980024,"apogee_km":35857.944544205,"semimajor_km":42164.898762115,"source":"CELESTRAK","updated_at":"2026-05-25T13:37:55.614426Z"}}